• In Uzbekistan
  • List of Countries
  • For 7 days
  • Water Temperature
  • Satellite Maps
  • Weather Map
  • Weather Widgets
  • user-avatar
    Login

    Hourly Weather Ondjiwa

    Today, 15 December, Saturday

    Time Temperature Precipitation Wind Pressure Humidity
    00:00 +30°C° 0 mm 2 mps 667 mmHg 19%
    01:00 +31°C° 0 mm 2 mps 668 mmHg 18%
    02:00 +30°C° 0 mm 2 mps 668 mmHg 19%
    03:00 +29°C° 0 mm 2 mps 668 mmHg 21%
    04:00 +29°C° 0 mm 1 mps 667 mmHg 22%
    05:00 +29°C° 0 mm 1 mps 668 mmHg 22%
    06:00 +30°C° 0 mm 2 mps 668 mmHg 23%
    07:00 +31°C° 0 mm 2 mps 669 mmHg 22%
    08:00 +34°C° 0 mm 2 mps 669 mmHg 20%
    09:00 +36°C° 0 mm 3 mps 669 mmHg 17%
    10:00 +38°C° 0 mm 4 mps 670 mmHg 14%
    11:00 +41°C° 0 mm 4 mps 669 mmHg 12%
    12:00 +42°C° 0 mm 4 mps 669 mmHg 11%
    13:00 +43°C° 0 mm 5 mps 668 mmHg 9%
    14:00 +43°C° 0 mm 4 mps 668 mmHg 8%
    15:00 +43°C° 0 mm 4 mps 667 mmHg 8%
    16:00 +43°C° 0 mm 3 mps 667 mmHg 7%
    17:00 +40°C° 0 mm 3 mps 667 mmHg 8%
    18:00 +38°C° 0 mm 2 mps 666 mmHg 9%
    19:00 +36°C° 0 mm 2 mps 666 mmHg 10%
    20:00 +35°C° 0 mm 2 mps 666 mmHg 12%
    21:00 +34°C° 0 mm 2 mps 667 mmHg 13%
    22:00 +33°C° 0 mm 3 mps 667 mmHg 14%
    23:00 +31°C° 0 mm 3 mps 667 mmHg 17%

    Tomorrow, 16 December, Sunday

    Time Temperature Precipitation Wind Pressure Humidity
    00:00 +30°C° 0 mm 3 mps 667 mmHg 20%
    01:00 +29°C° 0 mm 3 mps 667 mmHg 23%
    02:00 +28°C° 0 mm 3 mps 666 mmHg 26%
    03:00 +27°C° 0 mm 3 mps 666 mmHg 29%
    04:00 +26°C° 0 mm 2 mps 666 mmHg 33%
    05:00 +26°C° 0 mm 3 mps 666 mmHg 34%
    06:00 +27°C° 0 mm 3 mps 667 mmHg 35%
    07:00 +27°C° 0 mm 3 mps 667 mmHg 36%
    08:00 +30°C° 0 mm 3 mps 668 mmHg 31%
    09:00 +33°C° 0 mm 3 mps 668 mmHg 26%
    10:00 +36°C° 0 mm 3 mps 669 mmHg 21%
    11:00 +38°C° 0 mm 3 mps 668 mmHg 18%
    12:00 +39°C° 0 mm 3 mps 668 mmHg 15%
    13:00 +42°C° 0 mm 3 mps 668 mmHg 12%
    14:00 +41°C° 0 mm 2 mps 667 mmHg 12%
    15:00 +41°C° 0 mm 2 mps 666 mmHg 12%
    16:00 +41°C° 0 mm 1 mps 666 mmHg 11%
    17:00 +39°C° 0 mm 2 mps 666 mmHg 13%
    18:00 +38°C° 0 mm 2 mps 666 mmHg 15%
    19:00 +36°C° 0 mm 2 mps 666 mmHg 17%
    20:00 +35°C° 0.1 mm 3 mps 667 mmHg 21%
    21:00 +34°C° 0.1 mm 4 mps 667 mmHg 25%
    22:00 +32°C° 0.1 mm 5 mps 668 mmHg 30%
    23:00 +30°C° 0.1 mm 5 mps 668 mmHg 33%

    Day after tomorrow, 17 December, Monday

    Time Temperature Precipitation Wind Pressure Humidity
    00:00 +28°C° 0.1 mm 6 mps 667 mmHg 35%
    01:00 +27°C° 0.1 mm 6 mps 667 mmHg 38%
    02:00 +26°C° 0 mm 5 mps 667 mmHg 39%
    03:00 +25°C° 0 mm 4 mps 667 mmHg 39%
    04:00 +25°C° 0 mm 3 mps 667 mmHg 39%
    05:00 +25°C° 0 mm 3 mps 667 mmHg 38%
    06:00 +25°C° 0 mm 4 mps 668 mmHg 37%
    07:00 +26°C° 0 mm 4 mps 668 mmHg 36%
    08:00 +28°C° 0 mm 4 mps 668 mmHg 31%
    09:00 +32°C° 0 mm 4 mps 668 mmHg 27%
    10:00 +34°C° 0 mm 4 mps 669 mmHg 22%
    11:00 +36°C° 0 mm 3 mps 668 mmHg 20%
    12:00 +38°C° 0 mm 2 mps 668 mmHg 18%
    13:00 +40°C° 0 mm 2 mps 667 mmHg 16%
    14:00 +40°C° 0 mm 1 mps 667 mmHg 16%
    15:00 +39°C° 0 mm 1 mps 666 mmHg 16%
    16:00 +37°C° 0 mm 1 mps 665 mmHg 17%
    17:00 +36°C° 0 mm 1 mps 665 mmHg 18%
    18:00 +35°C° 0 mm 1 mps 665 mmHg 19%
    19:00 +34°C° 0 mm 1 mps 665 mmHg 20%
    20:00 +34°C° 0 mm 2 mps 666 mmHg 22%
    21:00 +33°C° 0 mm 3 mps 667 mmHg 23%
    22:00 +33°C° 0 mm 4 mps 667 mmHg 24%
    23:00 +30°C° 0 mm 4 mps 667 mmHg 28%

    18 December, Tuesday

    Time Temperature Precipitation Wind Pressure Humidity
    00:00 +29°C° 0 mm 4 mps 667 mmHg 32%
    01:00 +28°C° 0 mm 4 mps 667 mmHg 35%
    02:00 +27°C° 0 mm 4 mps 667 mmHg 37%
    03:00 +26°C° 0 mm 3 mps 667 mmHg 40%
    04:00 +25°C° 0 mm 3 mps 667 mmHg 42%
    05:00 +26°C° 0 mm 3 mps 667 mmHg 40%
    06:00 +26°C° 0 mm 3 mps 668 mmHg 39%
    07:00 +27°C° 0 mm 4 mps 668 mmHg 37%
    08:00 +29°C° 0 mm 4 mps 669 mmHg 32%
    09:00 +32°C° 0 mm 4 mps 669 mmHg 27%
    10:00 +34°C° 0 mm 4 mps 669 mmHg 22%
    11:00 +35°C° 0 mm 4 mps 669 mmHg 20%
    12:00 +37°C° 0 mm 4 mps 668 mmHg 19%
    13:00 +38°C° 0 mm 3 mps 667 mmHg 17%
    14:00 +38°C° 0 mm 4 mps 667 mmHg 17%
    15:00 +38°C° 0 mm 4 mps 666 mmHg 17%
    16:00 +38°C° 0 mm 4 mps 665 mmHg 16%
    17:00 +37°C° 0 mm 3 mps 665 mmHg 18%
    18:00 +35°C° 0 mm 3 mps 665 mmHg 20%
    19:00 +32°C° 0 mm 2 mps 665 mmHg 21%
    20:00 +32°C° 0 mm 2 mps 666 mmHg 22%
    21:00 +31°C° 0 mm 2 mps 666 mmHg 23%
    22:00 +30°C° 0 mm 3 mps 667 mmHg 24%
    23:00 +30°C° 0 mm 3 mps 667 mmHg 26%

    19 December, Wednesday

    Time Temperature Precipitation Wind Pressure Humidity
    00:00 +29°C° 0 mm 4 mps 666 mmHg 27%
    01:00 +28°C° 0 mm 4 mps 666 mmHg 29%
    02:00 +27°C° 0 mm 4 mps 666 mmHg 32%
    03:00 +26°C° 0 mm 3 mps 666 mmHg 34%
    04:00 +24°C° 0 mm 3 mps 666 mmHg 37%
    05:00 +25°C° 0 mm 3 mps 667 mmHg 34%
    06:00 +26°C° 0 mm 3 mps 668 mmHg 31%
    07:00 +26°C° 0 mm 3 mps 668 mmHg 28%
    08:00 +29°C° 0 mm 3 mps 668 mmHg 24%
    09:00 +32°C° 0 mm 4 mps 669 mmHg 20%
    10:00 +34°C° 0 mm 4 mps 669 mmHg 16%
    11:00 +36°C° 0 mm 4 mps 668 mmHg 16%
    12:00 +37°C° 0 mm 4 mps 668 mmHg 15%
    13:00 +40°C° 0 mm 4 mps 667 mmHg 15%
    14:00 +40°C° 0 mm 4 mps 666 mmHg 14%
    15:00 +40°C° 0 mm 4 mps 666 mmHg 14%
    16:00 +41°C° 0 mm 4 mps 665 mmHg 14%
    17:00 +38°C° 0 mm 3 mps 665 mmHg 15%
    18:00 +36°C° 0 mm 2 mps 665 mmHg 17%
    19:00 +34°C° 0 mm 2 mps 665 mmHg 18%
    20:00 +34°C° 0 mm 3 mps 666 mmHg 18%
    21:00 +33°C° 0 mm 3 mps 666 mmHg 18%
    22:00 +33°C° 0 mm 4 mps 667 mmHg 18%
    23:00 +32°C° 0 mm 4 mps 667 mmHg 20%

    20 December, Thursday

    Time Temperature Precipitation Wind Pressure Humidity
    00:00 +30°C° 0 mm 4 mps 667 mmHg 21%
    01:00 +29°C° 0 mm 4 mps 666 mmHg 22%
    02:00 +28°C° 0 mm 4 mps 666 mmHg 24%
    03:00 +27°C° 0 mm 4 mps 666 mmHg 26%
    04:00 +25°C° 0 mm 3 mps 666 mmHg 28%
    05:00 +26°C° 0 mm 4 mps 667 mmHg 26%
    06:00 +27°C° 0 mm 4 mps 667 mmHg 24%
    07:00 +28°C° 0 mm 4 mps 668 mmHg 22%
    08:00 +30°C° 0 mm 4 mps 668 mmHg 21%
    09:00 +33°C° 0 mm 4 mps 668 mmHg 19%
    10:00 +35°C° 0 mm 4 mps 668 mmHg 18%
    11:00 +35°C° 0 mm 4 mps 668 mmHg 17%
    12:00 +36°C° 0 mm 4 mps 667 mmHg 17%
    13:00 +37°C° 0 mm 3 mps 666 mmHg 16%
    14:00 +38°C° 0 mm 3 mps 666 mmHg 16%
    15:00 +38°C° 0 mm 3 mps 666 mmHg 16%
    16:00 +38°C° 0 mm 3 mps 665 mmHg 16%
    17:00 +37°C° 0 mm 3 mps 665 mmHg 18%
    18:00 +35°C° 0 mm 2 mps 665 mmHg 20%
    19:00 +33°C° 0 mm 1 mps 665 mmHg 21%
    20:00 +32°C° 0 mm 2 mps 665 mmHg 23%
    21:00 +31°C° 0 mm 2 mps 666 mmHg 25%
    22:00 +29°C° 0 mm 2 mps 666 mmHg 27%
    23:00 +29°C° 0 mm 2 mps 666 mmHg 27%
    Show more